This demonstration page uses our WeatherBlox Daily Observations layout. Learn more.

Left ArrowRight Arrow

39.01783, -85.05884

Hourly Observations for December 19, 2016

Temp ( °F °C ) Dew Point ( °F °C ) Humidity (%) Winds ( mph kmh ) Pressure ( in mb ) Visibility ( mi km ) Precip ( " mm )
12:52 am 00:52 Cloudy with Light Snow 16 -8.9 10 -12.2 77 77 NW 10 17 30.69 1039 9 14 N/A
1:52 am 01:52 Cloudy with Light Snow 15 -9.4 9 -12.8 77 77 NW 8 13 30.69 1039 9 14 N/A
2:52 am 02:52 Cloudy with Light Snow 15 -9.4 9 -12.8 77 77 NW 8 13 30.72 1040 9 14 N/A
3:52 am 03:52 Cloudy with Light Snow 15 -9.4 9 -12.8 77 77 NW 8 13 30.71 1040 9 14 N/A
4:52 am 04:52 Cloudy with Light Snow 14 -10 9 -12.8 80 80 NW 9 15 30.72 1040 9 14 N/A
5:52 am 05:52 Cloudy with Light Snow 14 -10 9 -12.8 80 80 NNW 9 15 30.73 1041 9 14 N/A
6:52 am 06:52 Cloudy 14 -10 9 -12.8 80 80 NNW 9 15 30.73 1041 10 16 N/A
7:52 am 07:52 Cloudy 14 -10 10 -12.2 84 84 NNW 6 9 30.75 1041 10 16 N/A
8:52 am 08:52 Cloudy 15 -9.4 10 -12.2 80 80 N 5 7 30.76 1042 9 14 N/A
9:52 am 09:52 Mostly Cloudy 16 -8.9 10 -12.2 77 77 NNE 5 7 30.76 1042 9 14 N/A
10:52 am 10:52 Cloudy 17 -8.3 12 -11.1 80 80 N 3 6 30.76 1042 9 14 N/A
11:52 am 11:52 Cloudy 19 -7.2 12 -11.1 74 74 N 5 7 30.75 1041 9 14 N/A
12:31 pm 12:31 Mostly Cloudy 21 -6.1 14 -10 74 74 N N/A 30.77 1042 9 14 N/A
12:52 pm 12:52 Mostly Cloudy 22 -5.6 14 -10 71 71 N 3 6 30.73 1041 10 16 N/A
1:52 pm 13:52 Mostly Cloudy 22 -5.6 15 -9.4 75 75 N 5 7 30.71 1040 10 16 N/A
2:52 pm 14:52 Mostly Cloudy 22 -5.6 14 -10 71 71 NW 5 7 30.71 1040 10 16 N/A
3:52 pm 15:52 Mostly Cloudy 22 -5.6 15 -9.4 75 75 N N/A 30.70 1040 10 16 N/A
4:52 pm 16:52 Mostly Cloudy 21 -6.1 15 -9.4 78 78 N N/A 30.68 1039 10 16 N/A
5:52 pm 17:52 Mostly Cloudy 20 -6.7 14 -10 78 78 N N/A 30.69 1039 10 16 N/A
6:52 pm 18:52 Partly Cloudy 17 -8.3 14 -10 88 88 N N/A 30.68 1039 10 16 N/A
7:52 pm 19:52 Mostly Clear 18 -7.8 15 -9.4 88 88 N N/A 30.67 1039 9 14 N/A
8:52 pm 20:52 Clear 19 -7.2 14 -10 81 81 N N/A 30.66 1038 8 13 N/A
9:52 pm 21:52 Clear 17 -8.3 13 -10.6 84 84 N N/A 30.65 1038 9 14 N/A
10:52 pm 22:52 Clear with Mist and Fog 14 -10 11 -11.7 88 88 N N/A 30.64 1038 5 8 N/A
11:52 pm 23:52 Clear 16 -8.9 12 -11.1 84 84 N N/A 30.63 1037 8 13 N/A

Powered by AerisWeather